Location: Gaast
(52.9002°N, 5.8891°E)
Time: 02:20:06
(UTC+00:00)

Geosat - Pass Details

Date: 18 November 2025
Orbit: 758 x 760 km, 108.0° (Epoch: 13 December)

Event Time Altitude Azimuth Distance (km) Brightness Sun altitude
Exits shadow 17:25:24 21° 109° (ESE) 1,667 5.2 -15.9°
Maximum altitude 17:28:24 45° 47° (NE) 1,038 4.3 -16.4°
Drops below altitude 10° 17:33:09 10° 337° (NNW) 2,304 6.6 -17.1°
Sets 17:35:31 0° 331° (NNW) 3,234 7.5 -17.4°
